Location: Clatteringshaws Loch
(55.0508°N, 4.2860°W)
Time: 18:22:47
(UTC+01:00)

Daily predictions for brighter satellites

Satellite Brightness Start Highest point End
(mag) Time Altitude Azimuth Time Altitude Azimuth Time Altitude Azimuth
ATLAS 3B R/B 3.0 19:29:18 10° SW 19:36:51 71° SE 19:44:06 10° NE
Cosmos 1607 4.2 19:33:38 10° SSW 19:39:29 46° ESE 19:45:20 10° NE
Cosmos 1725 Rocket 4.3 19:34:15 10° SSW 19:40:35 81° WNW 19:46:57 10° N
SAR-Lupe-1 4.4 19:37:17 10° S 19:40:51 73° WSW 19:44:25 10° NNW
Cosmos 2228 4.1 19:37:37 10° SSW 19:41:53 52° WNW 19:46:13 10° N
Cosmos 2333 4.4 19:36:43 10° SW 19:42:31 82° NW 19:48:21 10° NNE
Cosmos 304 Rocket 4.4 19:38:05 10° SW 19:42:49 62° WNW 19:47:37 10° NNE
METEOR-M 4.1 19:38:54 10° SSE 19:44:15 76° ENE 19:49:38 10° NNW
Aureole 2 Rocket 4.0 19:43:37 10° SSE 19:47:14 26° ESE 19:50:47 10° NE
H-2A R/B 4.2 19:47:12 10° ENE 19:49:01 12° NE 19:50:51 10° NNE
FENGYUN 3A 3.9 19:44:53 10° SE 19:50:03 50° ENE 19:55:16 10° N
Cosmos 2369 Rocket 3.0 19:45:43 10° NNW 19:50:57 37° NE 19:56:10 10° ESE
Cosmos 1452 Rocket 3.5 19:46:48 10° NNW 19:52:06 71° ENE 19:57:20 10° SE
NOSS 3-2 (A) 4.4 19:47:10 10° S 19:52:14 27° ESE 19:57:40 10° ENE
Cosmos 1805 4.5 19:50:47 10° SE 19:53:50 22° E 19:56:55 10° NE
DMSP B5D1-3 4.5 19:49:16 10° NNE 19:54:24 79° ESE 19:59:31 10° SSW
Cosmos 2112 Rocket 4.1 19:50:14 10° SSW 19:55:36 85° ESE 20:01:01 10° NNE
USA 238 DEB 3.9 19:49:47 10° SSW 19:56:36 55° SE 20:03:26 10° NE
USA 238 3.9 19:49:53 10° SSW 19:56:42 54° SE 20:03:32 10° NE
H-2A R/B 3.3 19:53:16 10° SE 19:56:55 38° ENE 20:00:33 10° N
Meteor 1-28 Rocket 3.2 19:54:02 10° NNE 19:57:45 58° E 20:01:26 10° S
Cosmos 1076 Rocket 3.5 19:53:29 10° N 19:57:48 71° ENE 20:02:08 10° SSE
Meteor 1-29 3.9 19:55:11 10° NE 19:58:19 28° E 20:01:23 10° SSE
ERS-1 Rocket 4.1 19:55:00 10° ESE 19:59:06 26° NE 20:03:14 10° N
Cosmos 1378 3.2 19:56:09 10° NNW 19:59:55 82° W 20:03:39 10° S
USA 186 2.5 19:58:48 13° ESE 20:00:11 20° ENE 20:02:00 10° NNE
SeaSat 1 3.9 19:57:31 10° ENE 20:00:19 15° ESE 20:03:06 10° SE
Cosmos 1680 Rocket 3.7 19:55:30 10° SSW 20:00:50 80° WNW 20:06:13 10° NNE
Cosmos 1707 4.3 19:57:22 10° NNW 20:01:00 40° W 20:04:38 10° SSW
SKYMED 2 3.9 19:56:47 10° NNE 20:01:09 72° WNW 20:05:28 10° SSW
SL-16 R/B 4.3 19:56:44 10° W 20:01:21 24° NNW 20:05:58 10° NNE
HJ-1C 3.4 19:58:51 10° SSE 20:02:13 84° WSW 20:05:38 10° NNW
Cosmos 1943 Rocket 3.4 19:58:27 10° NNW 20:03:18 28° NNE 20:07:47 11° E
Helios 1B rocket 2.7 20:03:24 10° NNE 20:07:22 44° E 20:11:18 10° S
SJ-6B 4.1 20:04:13 10° S 20:08:05 46° W 20:12:03 10° NNW
Cosmos-2242 3.8 20:04:54 10° SSE 20:08:44 30° E 20:12:35 10° NNE
Cosmos 1500 Rocket 4.3 20:04:49 10° N 20:08:51 34° ENE 20:12:55 10° SE
FengYun 1-2 T 4.2 20:03:34 10° SSE 20:09:05 85° ENE 20:14:37 10° NNW
Cosmos 2333 Rocket 2.3 20:03:34 10° SSW 20:09:22 87° ESE 20:15:11 10° NE
Cosmos 1408 Rocket 3.5 20:05:40 10° N 20:10:06 81° ENE 20:14:27 10° SSE
Cosmos 1544 4.3 20:09:49 10° SE 20:12:48 23° E 20:15:47 10° NE
Cosmos 1470 4.3 20:13:02 15° ESE 20:14:08 16° E 20:16:35 10° NE
Meteor 1-21 Rocket 4.2 20:08:57 10° N 20:14:34 69° ENE 20:20:06 10° SSE
Nadezhda 4 Rocket 4.1 20:08:46 10° N 20:15:02 59° ENE 20:21:12 10° SSE
Cosmos 1758 3.9 20:11:52 10° SSE 20:15:37 36° E 20:19:25 10° NNE
Cosmos 1346 3.3 20:13:07 10° N 20:16:02 45° ENE 20:18:43 11° SE
Cosmos 1420 Rocket 4.1 20:11:06 10° NNW 20:16:24 67° ENE 20:21:41 10° SE
Cosmos 1072 Rocket 4.4 20:12:26 10° S 20:18:30 71° E 20:24:37 10° NNE
Cosmos 1092 Rocket 4.2 20:13:38 10° N 20:19:44 50° ENE 20:25:43 10° SE
Resurs 01 Rocket 2.2 20:15:23 10° S 20:19:48 63° WSW 20:24:15 10° NNW
Cosmos 292 Rocket 3.8 20:15:25 10° SSW 20:20:14 88° ESE 20:25:07 10° NNE
Cosmos 2151 4.0 20:19:08 10° N 20:22:45 27° ENE 20:24:56 18° ESE
In-Cosmos 22 4.4 20:17:44 10° NNW 20:23:33 84° WSW 20:29:20 10° S
Resurs 1-3 3.9 20:19:56 10° S 20:24:19 71° WSW 20:28:44 10° NNW
Lacrosse 4 Rocket 3.9 20:22:12 10° WNW 20:25:27 19° NNW 20:28:44 10° NNE
Cosmos 1867 3.7 20:21:30 10° SW 20:27:00 82° NW 20:32:32 10° NE
Cosmos 2322 Rocket 4.5 20:23:44 10° WNW 20:27:53 20° NNW 20:32:03 10° NNE
NOSS 3-2 (C) 4.1 20:23:14 10° S 20:28:48 35° ESE 20:34:50 10° ENE
COSMOS 2428 4.0 20:24:11 10° WSW 20:29:36 42° NW 20:35:03 10° NNE
ATLAS CENTAUR R/B 4.1 20:29:22 10° WNW 20:31:54 15° WSW 20:34:18 10° SSW
CZ-4C R/B 2.3 20:30:54 10° SW 20:36:28 80° SE 20:42:54 10° NE
Cosmos 1743 Rocket 3.5 20:32:11 10° N 20:36:41 76° ENE 20:41:07 10° SSE
Cosmos 2026 Rocket 4.4 20:31:00 10° N 20:36:43 40° ENE 20:40:54 18° SE
Cosmos 2237 Rocket 2.5 20:32:39 10° SW 20:38:21 74° NW 20:44:03 10° NNE
ALOS 2.5 20:34:06 10° S 20:38:46 74° WSW 20:43:28 10° NNW
Cosmos 1939 Rocket 3.6 20:36:49 22° ESE 20:38:47 35° ENE 20:42:27 10° N
CZ-4B DEB 3.4 20:37:40 10° S 20:40:55 59° W 20:44:10 10° NNW
Cosmos 482 Debris 3.9 20:39:39 10° WSW 20:41:52 42° SSE 20:42:44 32° ESE
Cosmos 2058 3.9 20:39:15 10° N 20:42:50 28° ENE 20:43:57 24° E
H-2A R/B 3.9 20:41:51 12° ENE 20:43:34 15° NE 20:46:15 10° NNE
GP-B 3.5 20:39:35 10° NNE 20:43:49 41° E 20:46:45 18° SSE
Cosmos 1674 2.7 20:40:37 10° N 20:44:30 67° ENE 20:47:28 16° SSE
NOSS 0 Rocket 4.3 20:39:04 10° SW 20:45:14 67° NW 20:51:28 10° NE
Cosmos 1328 4.3 20:41:41 10° N 20:45:26 39° ENE 20:46:58 27° ESE
ASTEX 1 3.3 20:44:46 10° N 20:49:43 67° E 20:54:36 10° S
Meteor 2-12 Rocket 4.4 20:44:27 10° S 20:50:34 71° E 20:56:44 10° NNE
ATLAS 5 CENTAUR R/B 2.5 20:46:30 10° S 20:50:51 33° ESE 20:55:10 12° ENE
Cosmos 1980 4.3 20:46:07 10° SW 20:51:42 59° NW 20:57:21 10° NNE
Envisat 3.2 20:49:23 21° SE 20:52:34 52° ENE 20:57:30 10° N
Cosmos 2034 Rocket 4.0 20:46:30 10° S 20:52:48 84° E 20:59:11 10° NNE
Cosmos 839 Rocket 4.5 20:45:49 10° NW 20:54:30 89° NE 20:59:29 21° SE
Cosmos 1766 4.3 20:51:58 10° SSW 20:55:50 50° WNW 20:59:45 10° N
Cosmos 1464 Rocket 4.2 20:49:57 10° SSW 20:56:12 75° WNW 21:02:25 10° N
SL-16 R/B 2.1 20:51:01 10° SSW 20:56:43 81° ESE 21:02:27 10° NE
USA 215 3.4 20:52:15 10° ENE 20:58:35 54° SE 21:04:58 10° SW
SL-14 R/B 4.0 20:56:48 10° N 21:00:33 36° ENE 21:01:14 33° E
Exosat Rocket 4.2 20:57:40 10° NNW 21:03:32 74° ENE 21:08:58 22° SE
CZ-4 DEB 2.7 21:03:30 53° ESE 21:03:51 57° ENE 21:06:56 10° N
Sich 1 4.1 21:00:35 10° N 21:04:23 27° ENE 21:04:46 26° ENE
Terra 3.6 21:07:59 15° ENE 21:08:39 16° NE 21:11:28 10° NNE
COSMOS 2455 4.0 21:03:50 10° WSW 21:09:35 43° NNW 21:15:22 10° NE
ERBS 2.3 21:06:59 10° WNW 21:10:30 80° NNE 21:11:13 54° E
Cosmos 1953 2.6 21:07:19 10° SSW 21:11:18 68° WNW 21:15:18 10° N
MetOp-A 4.4 21:13:09 33° ESE 21:15:10 49° ENE 21:20:20 10° N
Cosmos 1656 Rocket 4.5 21:11:56 10° NNW 21:16:56 36° NE 21:18:47 28° E
ARGOS 3.9 21:15:39 31° E 21:17:09 36° ENE 21:22:05 10° N
USA 245 4.4 21:18:18 28° ENE 21:18:18 28° ENE 21:21:05 10° N
Cosmos 1627 Rocket 4.4 21:12:18 10° N 21:18:31 78° ENE 21:22:46 22° SSE
YAOGAN 11 4.0 21:16:38 29° SSE 21:18:46 88° WSW 21:23:07 10° NNW
Cosmos 2219 Rocket 3.8 21:14:21 10° WSW 21:19:32 35° NW 21:24:45 10° NNE
Cosmos 1805 Rocket 3.8 21:15:38 10° N 21:20:00 49° ENE 21:20:41 44° ESE
SJ-11-01 4.3 21:18:01 22° S 21:21:00 79° WSW 21:25:44 10° NNW
Cosmos 1980 Rocket 4.5 21:18:18 10° NNW 21:21:50 16° N 21:25:21 10° NE
Aureole 2 Rocket 3.8 21:18:24 10° SW 21:22:42 53° WNW 21:26:51 10° NNE
H-2A R/B 2.3 21:23:13 46° ESE 21:24:08 55° ENE 21:28:33 10° N
YAOGAN 6 3.2 21:25:59 41° NE 21:25:59 41° NE 21:29:08 10° N
Cosmos 1607 4.4 21:20:34 10° WSW 21:26:40 60° NW 21:32:48 10° NE
ATLAS 3B R/B 3.5 21:20:38 10° WSW 21:28:00 55° NNW 21:35:02 10° NE
Cosmos 1110 Rocket 3.9 21:22:56 10° NNW 21:28:16 82° ENE 21:30:14 40° SE
SPOT 5 2.6 21:28:55 52° ESE 21:29:32 57° ENE 21:33:49 10° N
Cosmos 1805 4.3 21:25:51 10° SSW 21:29:39 46° WNW 21:33:29 10° N
USA 186 3.8 21:30:37 15° WSW 21:31:14 16° W 21:32:50 10° NW
Cosmos 2263 4.2 21:29:07 10° NW 21:34:57 81° WSW 21:37:22 37° SSE
Cosmos 2369 Rocket 2.5 21:29:46 10° NW 21:35:21 64° WSW 21:38:11 30° S
Cosmos 1633 Rocket 3.5 21:31:29 10° N 21:35:31 43° ENE 21:35:31 43° ENE
Cosmos 1626 3.7 21:32:47 10° N 21:34:58 24° NE 21:34:58 24° NE
ERS-1 Rocket 3.2 21:34:37 25° S 21:37:32 68° WSW 21:42:34 10° NNW
SeaSat 1 2.3 21:33:42 10° NE 21:38:40 71° ESE 21:43:36 10° SSW
Cosmos 1943 4.2 21:44:08 29° ENE 21:44:08 29° ENE 21:47:16 10° NE
NOSS 3-2 (A) 3.5 21:35:57 10° SW 21:42:16 87° SE 21:49:18 10° NE
Cosmos 1603 3.6 21:38:00 10° SSW 21:43:45 77° ESE 21:49:32 10° NE
Cosmos-2242 4.4 21:42:05 10° SW 21:46:13 40° WNW 21:50:24 10° N
USA 238 DEB 4.2 21:40:37 10° WSW 21:47:37 63° NNW 21:54:38 10° NE
USA 238 4.2 21:40:42 10° WSW 21:47:43 63° NNW 21:54:44 10° NE
Cosmos 1544 4.4 21:44:15 10° SW 21:47:48 40° WNW 21:51:24 10° N
Cosmos 1943 Rocket 2.1 21:42:10 10° NNW 21:47:52 85° ENE 21:49:19 52° SE
Cosmos 1703 3.9 21:45:05 10° N 21:48:10 45° NNE 21:48:10 45° NNE
Cosmos 1470 3.1 21:48:23 36° SW 21:49:49 63° WNW 21:53:42 10° N
Cosmos 2221 3.3 21:52:35 40° NE 21:52:35 40° NE 21:55:36 10° NNE
Cosmos 1842 Rocket 3.9 21:48:11 17° SSW 21:51:30 63° WNW 21:55:52 10° N
SL-08 RB Rocket 4.1 21:52:01 45° NE 21:52:01 45° NE 21:56:01 10° N
Meteor 1-11 4.4 21:47:27 10° NNW 21:53:17 73° W 21:55:56 33° S
Cosmos 2333 Rocket 4.1 21:49:15 10° W 21:54:20 31° NW 21:59:26 10° NNE
Cosmos 1655 Rocket 4.0 21:48:20 10° NNW 21:54:35 77° W 21:57:46 31° S
Cosmos 1666 Rocket 3.5 21:53:56 10° N 21:58:15 78° NE 21:58:15 78° NE
Cosmos 2151 4.0 21:56:15 10° NNW 22:00:15 43° W 22:01:33 33° SW
Cosmos 1331 Rocket 4.3 21:59:16 10° NNW 22:04:33 65° WSW 22:05:45 50° SSW
Lacrosse 4 Rocket 3.9 22:02:54 10° NNW 22:05:49 17° N 22:07:52 13° NE
Cosmos 2279 Rocket 3.8 22:06:31 48° S 22:08:20 76° E 22:14:33 10° NNE
MetOp-B 4.2 22:07:41 55° S 22:08:53 77° WSW 22:14:16 10° NNW
Cosmos 1733 4.1 22:09:12 43° WSW 22:09:49 47° WNW 22:13:35 10° N
Aureole 3 4.4 22:03:47 10° NNW 22:10:58 88° WSW 22:12:33 53° S
Cosmos 1933 Rocket 4.5 22:07:16 10° N 22:10:33 39° NNE 22:10:33 39° NNE
Meteor 1-16 Rocket 3.9 22:10:54 60° SSW 22:11:55 89° ESE 22:17:18 10° NNE
Cosmos 1939 Rocket 4.4 22:12:46 28° SW 22:13:46 31° W 22:17:24 10° NNW
Cosmos 1302 Rocket 3.8 22:08:45 10° NNW 22:14:00 83° WSW 22:14:21 77° S
BREEZE-M DEB (TANK) 4.1 22:07:46 10° WSW 22:14:54 46° SSW 22:14:54 46° SSW
Cosmos 1269 Rocket 4.3 22:12:27 10° SW 22:17:42 66° WNW 22:23:00 10° NNE
Cosmos 2266 Rocket 3.9 22:12:35 10° N 22:19:01 74° ENE 22:19:52 65° SE
NOSS 3-2 (C) 3.7 22:12:52 10° WSW 22:19:13 78° NW 22:26:19 10° NE
Cosmos 2058 4.0 22:16:03 10° NNW 22:19:54 39° W 22:20:11 39° WSW
Cosmos 1470 Rocket 4.5 22:15:50 10° N 22:18:51 40° NNE 22:18:51 40° NNE
H-2A R/B 2.3 22:22:30 55° NE 22:22:30 55° NE 22:27:02 10° N
USA 81 4.5 22:23:21 50° NE 22:23:21 50° NE 22:27:33 10° NNE
Cosmos 1437 Rocket 4.4 22:24:38 28° N 22:24:38 28° N 22:26:36 10° NNE
CENTAUR R/B 3.8 22:26:20 29° ENE 22:26:20 29° ENE 22:29:49 10° NE
Cosmos 2237 Rocket 4.3 22:18:41 10° W 22:23:22 26° NNW 22:28:04 10° NNE
Cosmos 1048 Rocket 4.3 22:19:41 10° SW 22:24:58 66° WNW 22:30:12 10° NNE
CZ-4C R/B 3.3 22:19:52 10° W 22:25:32 47° NNW 22:32:02 10° NE
Landsat 7 4.2 22:31:32 57° NNE 22:31:32 57° NNE 22:35:27 10° NNW
Cosmos 1697 Rocket 4.2 22:26:19 10° NNW 22:30:55 25° NNE 22:32:03 23° NE
Cosmos 1992 Rocket 4.4 22:26:14 10° NNW 22:30:57 54° NE 22:30:57 54° NE
ATLAS 5 CENTAUR R/B 2.1 22:30:12 10° WSW 22:35:12 71° NW 22:36:51 44° NE
SL-16 R/B 3.9 22:36:25 10° W 22:41:28 31° NW 22:46:33 10° NNE
USA 215 3.2 22:39:38 45° ENE 22:41:56 86° NNW 22:48:30 10° WSW
Sich 1 4.0 22:38:03 10° NNW 22:41:46 44° WNW 22:41:46 44° WNW
SPOT 1/Viking Rocket 3.9 22:44:57 58° W 22:44:57 58° W 22:50:03 10° NNW
Terra 2.6 22:46:53 48° N 22:46:53 48° N 22:50:25 10° NNW
ARGOS 3.7 22:57:11 51° WSW 22:57:17 51° W 23:02:36 10° NNW
H-2A R/B 4.0 23:00:22 24° W 23:00:28 24° W 23:04:09 10° NW
Cosmos 1656 Rocket 4.0 22:55:30 10° NW 23:00:09 56° W 23:00:09 56° W
Meteor 2-3 Rocket 4.4 23:00:28 10° N 23:05:07 47° NNE 23:05:07 47° NNE
Cosmos 1980 Rocket 3.7 23:03:01 10° NNW 23:07:51 27° NNE 23:08:22 27° NE
Nadezhda 2 Rocket 4.5 23:02:37 10° NNW 23:08:36 77° WNW 23:08:36 77° WNW
SeaSat 1 4.1 23:11:34 10° NNE 23:15:57 32° NW 23:20:18 10° W
ATLAS 3B R/B 3.8 23:13:05 10° WNW 23:20:03 42° N 23:24:08 22° ENE
Cosmos 1943 3.8 23:25:52 52° NW 23:26:01 52° NW 23:31:33 10° NNE
Cosmos 1943 Rocket 3.9 23:26:43 10° NW 23:30:50 22° W 23:30:50 22° W
Cosmos 2285 Rocket 4.2 23:25:20 10° NNW 23:30:55 68° NW 23:30:55 68° NW
SL-16 R/B 4.0 23:29:26 10° NNW 23:33:51 22° NNE 23:35:03 21° NE
Lacrosse 4 Rocket 3.8 23:41:54 10° NNW 23:44:12 23° N 23:44:12 23° N
